Terminal Aerodrome Forecast
Issued by NWS Tallahassee, FL

Home | Current Version | Previous Version | Text Only | Print | Product List | Glossary On
Versions: 1 2 3 4 5 6 7 8 9 10 11 12 13 14 15 16 17 18 19 20
000
FTUS42 KTAE 032236 AAA
TAFTLH
TAF AMD
KTLH 032236Z 0323/0418 28008KT P6SM VCTS SCT050CB SCT250
     FM040100 20003KT P6SM SCT250=

USA.gov is the U.S. government's official web portal to all federal, state and local government web resources and services.